Meacham, OR

6:46 PM PST on January 20, 2017 (GMT -0800)
Meacham

Weather History for KMEH - June, 2013

Change the Weather History Date:

Sunday, June 30, 2013

  Actual Average Record
Temperature  
Mean Temperature 70 °F -  
Max Temperature 88 °F 70 °F 89 °F (2008)
Min Temperature 52 °F 37 °F 36 °F (2014)
Cooling Degree Days 4    
Growing Degree Days 20 (Base 50)    
Moisture  
Dew Point 56 °F    
Average Humidity 62    
Maximum Humidity 93    
Minimum Humidity 34    
Precipitation  
Precipitation 0.00 in - - ()
Sea Level Pressure  
Sea Level Pressure 30.02 in    
Wind  
Wind Speed 1 mph (NNE)    
Max Wind Speed 6 mph    
Max Gust Speed -    
Visibility 10 miles    
Events      
Averages and records for this station are not official NWS values.
T = Trace of Precipitation, MM = Missing Value Source: NWS Daily Summary

Daily Weather History Graph

Daily Weather History Graph

Search for Another Location

Airport or City:

Trip Planner

Search our weather history database for the weather conditions in past years. The results will help you decide how hot, cold, wet, or windy it might be!

Date:

Astronomy

Jun. 30, 2013 Rise Set
Actual Time 5:08 AM PDT 8:46 PM PDT
Civil Twilight 4:30 AM PDT 9:23 PM PDT
Nautical Twilight 3:40 AM PDT 10:14 PM PDT
Astronomical Twilight 2:32 AM PDT 11:21 PM PDT
Moon 12:24 AM PDT (6/30) 1:53 PM PDT (6/30)
Length of Visible Light 16h 53m
Length of Day
15h 37m
Last Quarter, 44% of the Moon is Illuminated
Jun 30
Last Quarter
Jul 8
New
Jul 15
First Quarter
Jul 22
Full
Jul 29
Last Quarter

Hourly Weather History & Observations

Time (PDT) Temp. Heat Index Dew Point Humidity Pressure Visibility Wind Dir Wind Speed Gust Speed Precip Events Conditions
12:56 AM 57.9 °F - 55.0 °F 90% 30.07 in 10.0 mi Calm Calm - N/A   Clear
1:56 AM 55.9 °F - 54.0 °F 93% 30.07 in 10.0 mi Calm Calm - N/A   Clear
2:56 AM 54.0 °F - 52.0 °F 93% 30.06 in 10.0 mi Calm Calm - N/A   Clear
3:56 AM 53.1 °F - 51.1 °F 93% 30.06 in 10.0 mi Calm Calm - N/A   Clear
4:56 AM 52.0 °F - 48.9 °F 89% 30.07 in 10.0 mi Calm Calm - N/A   Clear
5:56 AM 52.0 °F - 48.9 °F 89% 30.08 in 10.0 mi Calm Calm - N/A   Clear
6:56 AM 57.9 °F - 53.1 °F 84% 30.07 in 10.0 mi Calm Calm - N/A   Clear
7:56 AM 68.0 °F - 57.0 °F 68% 30.05 in 10.0 mi Calm Calm - N/A   Clear
8:56 AM 75.0 °F - 57.0 °F 53% 30.05 in 10.0 mi Calm Calm - N/A   Clear
9:56 AM 79.0 °F - 52.0 °F 39% 30.05 in 10.0 mi Calm Calm - N/A   Clear
10:56 AM 82.0 °F 81.2 °F 53.1 °F 37% 30.05 in 10.0 mi NNE 3.5 mph - N/A   Clear
11:56 AM 82.9 °F - 52.0 °F 34% 30.03 in 10.0 mi Variable 3.5 mph - N/A   Clear
12:56 PM 86.0 °F 85.0 °F 57.9 °F 38% 30.02 in 10.0 mi Variable 3.5 mph - N/A   Clear
1:56 PM 86.0 °F 85.4 °F 59.0 °F 40% 30.01 in 10.0 mi Variable 4.6 mph - N/A   Clear
2:56 PM 87.1 °F 87.0 °F 61.0 °F 41% 30.00 in 10.0 mi Variable 3.5 mph - N/A   Clear
3:56 PM 87.1 °F 86.7 °F 60.1 °F 40% 30.00 in 10.0 mi Variable 5.8 mph - N/A   Clear
4:56 PM 87.1 °F 86.7 °F 60.1 °F 40% 29.98 in 10.0 mi Variable 5.8 mph - N/A   Clear
5:56 PM 86.0 °F 84.9 °F 57.0 °F 37% 29.98 in 10.0 mi Variable 3.5 mph - N/A   Clear
6:56 PM 84.0 °F 83.3 °F 57.0 °F 40% 29.97 in 10.0 mi North 5.8 mph - N/A   Clear
7:56 PM 80.1 °F 80.2 °F 55.9 °F 43% 29.96 in 10.0 mi Calm Calm - N/A   Clear
8:56 PM 72.0 °F - 57.9 °F 61% 29.96 in 10.0 mi Calm Calm - N/A   Clear
9:56 PM 68.0 °F - 60.1 °F 76% 29.98 in 10.0 mi Calm Calm - N/A   Clear
10:56 PM 64.9 °F - 59.0 °F 81% 29.98 in 10.0 mi Calm Calm - N/A   Clear
11:56 PM 63.0 °F - 57.9 °F 84% 29.98 in 10.0 mi Calm Calm - N/A   Clear